Location: Newark
(45.9456°N, 15.4064°E)
Time: 10:31:23
(UTC+00:00)

Transit 2A Rocket - Pass Details

Date: 01 February 2020
Orbit: 592 x 911 km, 66.7° (Epoch: 19 February)

Event Time Altitude Azimuth Distance (km) Brightness Sun altitude
Exits shadow 04:25:55 15° 345° (NNW) 1,643 6.5 -20.2°
Drops below altitude 10° 04:27:31 10° 5° (N) 1,985 7.2 -19.9°
Sets 04:30:33 0° 25° (NNE) 2,938 8.3 -19.4°
